Location: Krakow
(50.0830°N, 19.9170°E)
Time: 19:43:36
(UTC+01:00)

Altair - Pass Details

Date: 10 December 2023
Orbit: 1501 x 1682 km, 47.2° (Epoch: 02 March)

Event Time Altitude Azimuth Distance (km) Brightness Sun altitude
Rises 14:19:13 0° 286° (WNW) 4,697 10.4 8.3°
Reaches altitude 10° 14:23:56 10° 266° (W) 3,683 10.3 7.8°
Maximum altitude 14:28:42 15° 234° (SW) 3,248 11.2 7.3°
Drops below altitude 10° 14:33:27 10° 202° (SSW) 3,645 11.2 6.8°
Sets 14:38:06 0° 181° (S) 4,621 10.9 6.3°
